CW6294 Weather Reports


Display with metric or nautical units.
time (UTC)temp
F
wind
direction
speed
MPH
gust
MPH
rain 1hr
in
rain 24hr
in
rain mn
in
humidity
%
barometer
mb
20260901112439 78 266 0.0 0.0 0.00 0.00 0.00 97 1015.2
20260901110932 77 198 0.0 0.0 0.00 0.00 0.00 98 1015.1
20260901105428 77 200 0.0 0.0 0.00 0.00 0.00 99 1015.2
20260901103923 77 200 0.0 0.0 0.00 0.00 0.00 99 1015.0
20260901102423 77 200 0.0 0.0 0.00 0.00 0.00 99 1014.9
20260901100904 77 200 0.0 0.0 0.00 0.00 0.00 99 1014.8
20260901095403 77 200 0.0 0.0 0.00 0.00 0.00 99 1014.6
20260901093836 77 200 0.0 0.0 0.00 0.00 0.00 99 1014.6
20260901092330 77 200 0.0 0.0 0.00 0.00 0.00 99 1015.0
20260901090829 77 203 0.0 0.0 0.00 0.00 0.00 99 1015.0
20260901090027 78 201 0.0 0.0 0.00 0.00 0.00 98 1014.9
20260901083825 78 196 0.0 0.0 0.00 0.00 0.00 98 1015.0
20260901082321 78 198 0.0 0.0 0.00 0.00 0.00 99 1015.0
20260901081517 78 226 0.0 0.0 0.00 0.00 0.00 99 1015.1
20260901075316 78 209 0.0 0.0 0.00 0.00 0.00 99 1015.0
20260901073816 78 205 0.0 0.0 0.00 0.00 0.00 100 1015.1
20260901073008 78 185 0.0 0.0 0.00 0.00 0.00 100 1015.3
20260901070803 78 185 0.0 0.0 0.00 0.00 0.00 100 1015.4
20260901065301 78 208 0.0 0.0 0.00 0.00 0.00 100 1015.5
20260901064447 78 209 0.0 0.0 0.00 0.00 0.00 100 1015.7
20260901062942 78 221 0.0 0.0 0.00 0.00 0.00 100 1015.6
20260901060743 78 200 0.0 0.0 0.00 0.00 0.00 100 1015.5
20260901055236 78 198 0.0 0.0 0.00 0.00 0.00 99 1015.7
20260901053728 78 198 0.0 0.0 0.00 0.00 0.00 99 1015.9
20260901052212 78 194 0.0 0.0 0.00 0.00 0.00 99 1015.9
20260901050714 78 194 0.0 0.0 0.00 0.00 0.00 99 1016.1
20260901045143 78 194 0.0 0.0 0.00 0.00 0.00 99 1016.3
20260901043641 78 202 0.0 0.0 0.00 0.00 0.00 99 1016.4
20260901042851 78 114 0.0 0.0 0.00 0.00 0.00 99 1016.4
20260901040633 78 114 0.0 0.0 0.00 0.00 0.00 99 1016.5
20260901035131 78 114 0.0 0.0 0.00 0.00 0.00 99 1016.5
20260901033623 78 114 0.0 0.0 0.00 0.00 0.00 99 1016.5
20260901032113 78 114 0.0 0.0 0.00 0.00 0.00 98 1016.6
20260901030606 79 114 0.0 0.0 0.00 0.00 0.00 98 1016.5
20260901025056 79 114 0.0 0.0 0.00 0.00 0.00 98 1016.7
20260901023550 79 114 0.0 0.0 0.00 0.00 0.00 97 1016.6
20260901022042 79 114 0.0 0.0 0.00 0.00 0.00 97 1016.4
20260901020539 80 114 0.0 0.0 0.00 0.00 0.00 97 1016.5
20260901015040 80 114 0.0 0.0 0.00 0.00 0.00 97 1016.6
20260901013538 80 114 0.0 0.0 0.00 0.00 0.00 96 1016.6
20260901012739 80 136 0.0 0.0 0.00 0.00 0.00 96 1016.5
20260901011220 81 149 0.0 0.0 0.00 0.00 0.00 95 1016.4
20260901005027 81 97 0.0 0.0 0.00 0.00 0.00 95 1016.3
20260901003524 82 97 0.0 0.0 0.00 0.01 0.00 94 1016.2
20260901002010 82 97 0.0 0.0 0.00 0.14 0.00 93 1016.2
20260901000508 83 97 0.0 0.0 0.00 0.14 0.00 92 1016.1
20260831235651 83 98 0.0 0.0 0.00 0.14 0.00 90 1016.0
20260831233453 84 140 0.0 0.0 0.00 0.14 0.00 86 1016.1
20260831231951 85 33 0.0 0.0 0.00 0.14 0.00 85 1016.0
20260831230424 85 33 0.0 0.0 0.00 0.14 0.00 85 1016.2
20260831224925 86 33 0.0 0.0 0.00 0.14 0.00 83 1016.4
20260831223419 86 33 0.0 0.0 0.00 0.14 0.00 83 1016.5
20260831221905 86 33 0.0 0.0 0.00 0.14 0.00 83 1016.7
20260831220406 86 33 0.0 0.0 0.00 0.14 0.00 83 1016.8
20260831214845 86 258 0.0 0.0 0.00 0.14 0.00 84 1016.9
20260831213341 86 271 0.0 0.0 0.00 0.14 0.00 81 1016.8
20260831211843 87 17 0.0 0.0 0.00 0.14 0.00 81 1016.6
20260831210324 86 276 0.0 0.0 0.00 0.14 0.00 82 1016.6
20260831204806 87 270 0.0 0.0 0.00 0.14 0.00 82 1016.5
20260831203302 87 268 0.0 0.0 0.00 0.14 0.00 80 1016.6
20260831201803 87 295 0.0 0.0 0.00 0.14 0.00 78 1016.6
20260831200257 87 241 0.0 0.0 0.00 0.14 0.00 77 1016.7
20260831194759 87 281 0.0 0.0 0.00 0.14 0.00 77 1016.6
20260831193255 87 213 0.0 0.0 0.00 0.14 0.00 77 1016.7
20260831191752 87 290 0.0 0.0 0.00 0.14 0.00 76 1017.0
20260831190251 88 270 0.0 0.0 0.00 0.14 0.00 78 1017.2
20260831184749 87 294 0.0 0.0 0.00 0.14 0.00 80 1017.1
20260831183942 88 285 0.0 0.0 0.00 0.14 0.00 78 1017.1
20260831181746 89 188 0.0 0.0 0.00 0.14 0.00 77 1017.2
20260831180242 90 136 0.0 0.0 0.00 0.14 0.00 76 1017.2
20260831175434 89 101 0.0 0.0 0.00 0.14 0.00 78 1017.2
20260831173932 88 62 0.0 0.0 0.00 0.14 0.00 79 1017.4
20260831171734 87 85 0.0 5.0 0.00 0.14 0.00 80 1017.5
20260831170235 87 88 0.0 5.0 0.00 0.14 0.00 80 1017.7
20260831164723 87 57 0.0 4.0 0.00 0.14 0.00 81 1017.8
20260831163218 87 64 1.0 6.0 0.00 0.14 0.00 80 1018.0
20260831161718 87 69 0.0 4.0 0.00 0.14 0.00 81 1018.2
20260831160208 87 74 1.0 5.0 0.00 0.14 0.00 82 1018.1
20260831154708 86 58 1.0 6.0 0.00 0.14 0.00 84 1017.8
20260831153914 85 59 1.0 6.0 0.00 0.14 0.00 86 1017.8
20260831152356 84 340 1.0 7.0 0.00 0.14 0.00 87 1018.0
20260831150203 83 327 1.0 8.0 0.00 0.14 0.00 89 1018.1
20260831144701 83 53 0.0 6.0 0.00 0.14 0.00 89 1017.9
20260831143158 83 24 1.0 7.0 0.00 0.14 0.00 92 1017.6
20260831141654 83 64 1.0 6.0 0.00 0.14 0.00 92 1017.7
20260831140849 80 52 1.0 7.0 0.00 0.14 0.00 95 1017.8
20260831134653 79 18 1.0 6.0 0.00 0.14 0.00 97 1017.9
20260831133144 78 33 0.0 1.0 0.00 0.14 0.00 100 1017.9
20260831131643 77 68 0.0 3.0 0.00 0.14 0.00 100 1017.9
20260831130137 76 53 0.0 5.0 0.00 0.14 0.00 100 1018.0
20260831124617 75 48 0.0 1.0 0.00 0.14 0.00 100 1017.9
20260831123115 74 48 0.0 2.0 0.00 0.14 0.00 100 1017.8
20260831121553 73 111 0.0 2.0 0.00 0.14 0.00 100 1017.8
20260831120046 73 110 0.0 1.0 0.00 0.14 0.00 100 1017.6
20260831115251 73 110 0.0 1.0 0.00 0.14 0.00 100 1017.5